User: anonymous   Login
Location: Unspecified
(0.0000°N, 0.0000°E)
Time: 09:11:27
(UTC+00:00)
Language:

OAO 2 - Orbit

View from above orbital plane
View from above orbital plane
View from above satellite
View from above satellite

Ground track
Ground track

The orbit data is extracted from the following two-line orbital elements,

1  3597U 68110A   17086.46723500 +.00000050 +00000-0 +19179-4 0  9995
2  3597 034.9932 124.0826 0006138 304.9790 055.0323 14.45766002545624
Epoch (UTC): 27 March 2017 11:12:49
Eccentricity: 0.0006138
inclination: 34.9932°
perigee height: 735 km
apogee height: 744 km
right ascension of ascending node: 124.0826°
argument of perigee: 304.9790°
revolutions per day: 14.45766002
mean anomaly at epoch: 55.0323°
orbit number at epoch: 54562

The dashed part of the orbit path shows where the satellite is in the earth's shadow,  

DLR